When you browse on this site, cookies collect data to enhance your experience and personalize the content and advertising you see.
Visit our Privacy Policy to learn more. By continuing to use the site, you agree to this use of cookies and data.
  • In Hungary
  • List of Countries
  • For 7 days
  • Water Temperature
  • Satellite Maps
  • Weather Map
  • News
  • Weather Widgets
  • user-avatar
    Login

    Hourly Weather Lyzniaki

    Today, 12 December, Wednesday

    Time Temperature Precipitation Wind Pressure Humidity
    00:00 +1°C° 0.2 mm 2 mps 741 mmHg 95%
    01:00 -1°C° 0.2 mm 2 mps 742 mmHg 95%
    02:00 -1°C° 0.1 mm 2 mps 742 mmHg 95%
    03:00 -1°C° 0.1 mm 2 mps 742 mmHg 95%
    04:00 -1°C° 0.1 mm 2 mps 742 mmHg 94%
    05:00 -2°C° 0 mm 2 mps 743 mmHg 94%
    06:00 -2°C° 0 mm 2 mps 743 mmHg 94%
    07:00 -2°C° 0 mm 2 mps 744 mmHg 94%
    08:00 -2°C° 0 mm 3 mps 744 mmHg 91%
    09:00 -1°C° 0 mm 3 mps 745 mmHg 88%
    10:00 -1°C° 0 mm 3 mps 745 mmHg 86%
    11:00 0°C° 0.1 mm 3 mps 745 mmHg 83%
    12:00 0°C° 0.1 mm 3 mps 745 mmHg 79%
    13:00 +1°C° 0.1 mm 3 mps 746 mmHg 76%
    14:00 0°C° 0 mm 3 mps 746 mmHg 79%
    15:00 0°C° 0 mm 3 mps 746 mmHg 82%
    16:00 -1°C° 0 mm 2 mps 746 mmHg 85%
    17:00 -1°C° 0 mm 2 mps 747 mmHg 87%
    18:00 -2°C° 0 mm 2 mps 747 mmHg 89%
    19:00 -2°C° 0 mm 2 mps 747 mmHg 92%
    20:00 -2°C° 0 mm 2 mps 747 mmHg 93%
    21:00 -2°C° 0 mm 2 mps 747 mmHg 93%
    22:00 -2°C° 0 mm 2 mps 747 mmHg 94%
    23:00 -2°C° 0 mm 2 mps 747 mmHg 94%

    Tomorrow, 13 December, Thursday

    Time Temperature Precipitation Wind Pressure Humidity
    00:00 -2°C° 0 mm 2 mps 747 mmHg 94%
    01:00 -2°C° 0 mm 2 mps 747 mmHg 94%
    02:00 -2°C° 0.1 mm 2 mps 747 mmHg 94%
    03:00 -2°C° 0.1 mm 2 mps 747 mmHg 94%
    04:00 +1°C° 0.1 mm 1 mps 747 mmHg 94%
    05:00 +1°C° 0 mm 1 mps 747 mmHg 95%
    06:00 +1°C° 0 mm 1 mps 747 mmHg 95%
    07:00 +1°C° 0 mm 1 mps 747 mmHg 95%
    08:00 +1°C° 0.1 mm 1 mps 747 mmHg 94%
    09:00 +1°C° 0.1 mm 1 mps 747 mmHg 92%
    10:00 +1°C° 0.1 mm 1 mps 747 mmHg 91%
    11:00 -1°C° 0 mm 2 mps 747 mmHg 89%
    12:00 +1°C° 0 mm 2 mps 747 mmHg 87%
    13:00 +1°C° 0 mm 2 mps 747 mmHg 85%
    14:00 -1°C° 0 mm 2 mps 747 mmHg 86%
    15:00 -1°C° 0 mm 2 mps 747 mmHg 87%
    16:00 -1°C° 0 mm 2 mps 747 mmHg 88%
    17:00 -2°C° 0 mm 2 mps 747 mmHg 88%
    18:00 -2°C° 0 mm 2 mps 747 mmHg 89%
    19:00 -3°C° 0 mm 2 mps 747 mmHg 89%
    20:00 -3°C° 0 mm 2 mps 747 mmHg 89%
    21:00 -3°C° 0 mm 2 mps 747 mmHg 89%
    22:00 -3°C° 0 mm 2 mps 747 mmHg 89%
    23:00 -1°C° 0 mm 1 mps 747 mmHg 89%

    Day after tomorrow, 14 December, Friday

    Time Temperature Precipitation Wind Pressure Humidity
    00:00 -1°C° 0 mm 1 mps 747 mmHg 89%
    01:00 -1°C° 0 mm 1 mps 747 mmHg 89%
    02:00 -3°C° 0 mm 2 mps 747 mmHg 88%
    03:00 -3°C° 0 mm 2 mps 747 mmHg 88%
    04:00 -3°C° 0 mm 2 mps 747 mmHg 88%
    05:00 -3°C° 0 mm 2 mps 748 mmHg 88%
    06:00 -3°C° 0 mm 2 mps 748 mmHg 87%
    07:00 -3°C° 0 mm 2 mps 748 mmHg 87%
    08:00 -3°C° 0 mm 2 mps 748 mmHg 84%
    09:00 -2°C° 0 mm 2 mps 748 mmHg 81%
    10:00 -2°C° 0 mm 2 mps 749 mmHg 78%
    11:00 -1°C° 0 mm 2 mps 749 mmHg 75%
    12:00 -1°C° 0 mm 2 mps 748 mmHg 73%
    13:00 -1°C° 0 mm 2 mps 748 mmHg 70%
    14:00 -1°C° 0 mm 2 mps 749 mmHg 73%
    15:00 -2°C° 0 mm 2 mps 749 mmHg 76%
    16:00 -3°C° 0 mm 2 mps 749 mmHg 79%
    17:00 -3°C° 0 mm 2 mps 749 mmHg 81%
    18:00 -3°C° 0 mm 2 mps 749 mmHg 82%
    19:00 -3°C° 0 mm 2 mps 750 mmHg 84%
    20:00 -3°C° 0 mm 2 mps 750 mmHg 85%
    21:00 -3°C° 0 mm 2 mps 750 mmHg 86%
    22:00 -3°C° 0 mm 2 mps 750 mmHg 87%
    23:00 -3°C° 0 mm 2 mps 750 mmHg 88%

    15 December, Saturday

    Time Temperature Precipitation Wind Pressure Humidity
    00:00 -3°C° 0 mm 2 mps 750 mmHg 88%
    01:00 -3°C° 0 mm 2 mps 750 mmHg 89%
    02:00 -3°C° 0 mm 2 mps 750 mmHg 90%
    03:00 -3°C° 0 mm 2 mps 750 mmHg 92%
    04:00 -3°C° 0 mm 2 mps 750 mmHg 93%
    05:00 -3°C° 0 mm 2 mps 750 mmHg 93%
    06:00 -3°C° 0 mm 2 mps 750 mmHg 93%
    07:00 -3°C° 0 mm 2 mps 750 mmHg 94%
    08:00 -3°C° 0 mm 2 mps 750 mmHg 90%
    09:00 -2°C° 0 mm 2 mps 751 mmHg 87%
    10:00 -2°C° 0 mm 3 mps 751 mmHg 84%
    11:00 -2°C° 0 mm 3 mps 751 mmHg 80%
    12:00 -1°C° 0 mm 3 mps 751 mmHg 77%
    13:00 -1°C° 0 mm 3 mps 751 mmHg 74%
    14:00 -2°C° 0 mm 3 mps 751 mmHg 76%
    15:00 -2°C° 0 mm 2 mps 751 mmHg 79%
    16:00 -3°C° 0 mm 2 mps 751 mmHg 81%
    17:00 -3°C° 0 mm 2 mps 751 mmHg 81%
    18:00 -4°C° 0 mm 3 mps 751 mmHg 82%
    19:00 -4°C° 0 mm 3 mps 751 mmHg 83%
    20:00 -4°C° 0 mm 3 mps 751 mmHg 82%
    21:00 -4°C° 0 mm 3 mps 751 mmHg 81%
    22:00 -4°C° 0 mm 3 mps 751 mmHg 80%
    23:00 -4°C° 0 mm 3 mps 751 mmHg 79%

    16 December, Sunday

    Time Temperature Precipitation Wind Pressure Humidity
    00:00 -4°C° 0 mm 3 mps 751 mmHg 77%
    01:00 -4°C° 0 mm 4 mps 751 mmHg 76%
    02:00 -4°C° 0 mm 3 mps 751 mmHg 76%
    03:00 -4°C° 0 mm 3 mps 750 mmHg 76%
    04:00 -4°C° 0 mm 3 mps 750 mmHg 76%
    05:00 -4°C° 0 mm 3 mps 750 mmHg 78%
    06:00 -4°C° 0 mm 3 mps 750 mmHg 79%
    07:00 -4°C° 0 mm 3 mps 750 mmHg 81%
    08:00 -4°C° 0 mm 4 mps 749 mmHg 80%
    09:00 -3°C° 0 mm 4 mps 749 mmHg 80%
    10:00 -4°C° 0 mm 5 mps 749 mmHg 79%
    11:00 -4°C° 0 mm 5 mps 748 mmHg 79%
    12:00 -2°C° 0 mm 5 mps 748 mmHg 78%
    13:00 -2°C° 0 mm 4 mps 747 mmHg 77%
    14:00 -3°C° 0 mm 4 mps 747 mmHg 79%
    15:00 -3°C° 0 mm 4 mps 746 mmHg 81%
    16:00 -3°C° 0 mm 4 mps 746 mmHg 82%
    17:00 -3°C° 0 mm 4 mps 745 mmHg 80%
    18:00 -3°C° 0 mm 4 mps 745 mmHg 77%
    19:00 -4°C° 0 mm 5 mps 745 mmHg 75%
    20:00 -4°C° 0.1 mm 5 mps 744 mmHg 76%
    21:00 -4°C° 0.1 mm 6 mps 744 mmHg 78%
    22:00 -3°C° 0.1 mm 7 mps 744 mmHg 80%
    23:00 -3°C° 0.1 mm 7 mps 744 mmHg 78%

    17 December, Monday

    Time Temperature Precipitation Wind Pressure Humidity
    00:00 -3°C° 0.1 mm 7 mps 743 mmHg 75%
    01:00 -3°C° 0.1 mm 6 mps 743 mmHg 73%
    02:00 -3°C° 0 mm 6 mps 743 mmHg 75%
    03:00 -3°C° 0 mm 6 mps 743 mmHg 77%
    04:00 -1°C° 0 mm 5 mps 743 mmHg 79%
    05:00 -2°C° 0 mm 5 mps 743 mmHg 81%
    06:00 -2°C° 0 mm 5 mps 743 mmHg 83%
    07:00 -2°C° 0 mm 5 mps 744 mmHg 85%
    08:00 -1°C° 0.1 mm 5 mps 744 mmHg 86%
    09:00 -1°C° 0.1 mm 4 mps 744 mmHg 87%
    10:00 -1°C° 0.1 mm 4 mps 745 mmHg 88%
    11:00 -1°C° 0 mm 4 mps 745 mmHg 89%
    12:00 -1°C° 0 mm 4 mps 744 mmHg 89%
    13:00 -1°C° 0 mm 4 mps 744 mmHg 90%
    14:00 0°C° 0 mm 3 mps 744 mmHg 91%
    15:00 0°C° 0 mm 3 mps 744 mmHg 92%
    16:00 -1°C° 0 mm 2 mps 744 mmHg 93%
    17:00 -1°C° 0 mm 2 mps 744 mmHg 93%
    18:00 -1°C° 0 mm 2 mps 744 mmHg 92%
    19:00 -1°C° 0 mm 2 mps 744 mmHg 92%
    20:00 -1°C° 0 mm 2 mps 744 mmHg 91%
    21:00 -2°C° 0 mm 2 mps 744 mmHg 90%
    22:00 -2°C° 0 mm 2 mps 744 mmHg 89%
    23:00 -2°C° 0 mm 2 mps 744 mmHg 88%
    Show more